Theta_e
332 333 335 338 339 338 339 339 339 341 342 343 342 341 342 341 341 340 344 346 343 342 343 344 340 340 342 342 342 342 341 342 343 344 342 343 342 341 341 340 341 342 343 342 342 342 342 341 340 340 340 338 336 336 336 337 338 339 336 334 334 332 336 337 335 335 331 329 330 326 332 333 335 337 336 335 336 337 340 334 336 335 335 335 335
333 333 333 334 335 337 338 338 338 336 338 340 339 340 341 342 341 342 344 343 343 344 343 344 343 341 341 340 341 342 342 341 341 343 344 344 343 341 341 341 341 342 343 343 342 342 341 340 339 339 339 339 338 338 338 338 337 337 335 333 337 332 332 336 333 334 327 325 324 326 328 330 333 335 335 336 336 335 335 335 333 334 334 333 334
327 329 330 330 332 333 334 335 336 337 338 338 339 339 339 339 340 341 342 342 342 342 342 342 344 344 343 344 343 340 346 349 343 343 345 344 343 343 342 340 340 341 342 341 341 341 341 340 339 340 340 339 337 338 338 337 336 334 334 332 332 333 331 334 333 333 328 328 327 324 320 322 328 331 333 334 335 334 335 335 335 335 334 334 333
324 324 325 326 327 327 329 330 332 334 335 335 336 337 337 338 338 339 340 341 341 342 341 343 343 345 347 346 345 345 343 347 347 347 345 343 343 343 342 341 340 339 341 340 340 340 340 340 340 340 339 340 338 337 336 335 335 334 334 334 334 330 328 330 333 332 332 329 319 321 322 321 318 322 326 331 335 334 335 334 335 334 334 334 333
321 322 323 323 324 325 327 328 330 330 332 334 335 336 337 337 339 339 339 340 341 341 343 343 343 343 343 344 345 345 344 343 342 342 342 342 341 342 342 341 340 340 340 340 339 339 340 340 340 340 340 340 339 338 336 335 334 334 335 335 333 330 329 331 333 333 331 335 327 322 320 317 318 324 326 326 332 331 332 334 333 333 333 333 333
320 320 321 322 323 324 325 326 327 329 330 333 336 336 337 337 338 339 339 340 340 341 343 341 343 340 340 338 338 338 337 338 339 339 340 339 340 342 343 342 341 340 340 340 340 339 339 339 340 340 340 340 339 337 337 336 335 332 334 334 331 331 330 330 329 334 333 331 331 329 327 320 320 323 324 317 330 331 331 333 332 333 334 332 331
319 320 320 320 321 322 323 324 326 327 329 332 334 335 336 337 338 338 338 339 340 340 341 342 341 340 340 338 338 338 336 339 344 343 342 344 347 343 343 343 341 341 341 340 341 340 340 339 339 340 340 340 339 338 336 335 335 334 335 333 331 330 330 328 328 329 333 332 331 331 330 332 330 323 319 323 318 326 329 329 330 333 332 329 331
317 317 319 319 320 321 321 323 324 325 328 330 332 333 333 335 336 336 337 338 339 339 339 340 338 339 339 338 339 338 338 338 339 342 342 343 344 344 343 343 342 341 342 341 341 340 340 339 340 339 339 340 339 337 336 337 336 335 335 334 333 332 331 328 327 328 326 329 331 331 333 334 333 331 330 326 323 318 322 328 331 331 331 331 331
316 316 317 318 319 320 321 321 323 324 327 328 329 331 332 333 333 333 332 334 334 336 335 337 338 338 338 338 337 338 339 339 340 339 340 340 339 343 343 343 343 342 342 342 341 340 339 340 339 339 338 338 339 338 338 338 336 334 333 334 333 332 332 332 330 327 328 330 330 331 332 331 331 331 331 329 323 320 320 323 323 329 330 331 331
316 317 317 318 319 320 322 322 322 324 326 327 328 329 329 329 329 330 328 330 331 331 332 333 334 335 336 337 336 336 337 339 340 338 337 339 338 339 338 339 340 339 340 341 337 339 338 338 338 338 338 338 338 338 338 337 337 335 334 335 336 334 336 335 333 333 333 333 333 332 328 329 329 328 327 326 325 324 319 320 322 323 322 326 331
315 316 317 317 319 320 320 320 321 323 325 325 326 327 327 327 327 327 327 328 329 329 330 330 332 332 332 333 333 334 335 336 336 338 337 337 335 335 337 336 338 336 337 335 336 336 337 336 337 337 336 338 338 337 336 337 337 337 336 335 336 336 335 336 333 334 333 333 333 333 330 329 326 324 324 324 323 321 321 321 321 324 325 324 328
314 315 315 316 317 318 319 318 319 320 322 322 323 324 324 325 325 325 326 327 327 328 329 329 330 330 330 331 331 332 333 333 334 334 335 334 334 335 336 335 333 334 335 335 332 336 338 337 336 335 333 335 336 336 337 337 337 337 336 336 335 336 337 336 334 333 333 333 333 333 331 331 330 328 328 328 325 323 322 321 322 322 325 326 330
313 313 314 314 315 315 316 316 318 318 318 319 320 321 322 322 323 323 323 325 326 327 327 327 327 328 328 328 329 330 331 332 332 333 335 334 334 333 333 332 333 332 332 331 334 334 335 336 335 334 333 333 336 336 336 336 336 337 336 336 335 334 333 335 334 333 333 332 332 334 333 332 330 331 330 328 327 328 325 322 322 326 320 321 327
312 313 313 314 314 314 315 315 316 317 317 319 319 320 320 321 321 321 322 324 324 325 325 325 326 326 328 328 328 329 329 329 330 331 334 335 335 334 333 332 332 331 330 331 334 332 333 335 334 333 334 337 338 336 335 335 335 334 335 334 334 334 335 334 334 334 334 333 334 333 333 332 331 331 330 329 328 326 325 323 322 323 325 323 326
311 312 312 313 313 314 314 315 315 316 317 318 318 318 319 319 320 320 320 322 323 323 324 324 325 326 327 327 327 327 327 327 328 330 331 333 334 335 332 331 332 332 333 333 334 334 333 335 334 333 335 336 336 337 337 336 333 334 331 332 333 333 334 334 334 334 333 333 333 333 333 333 332 332 331 331 330 328 326 325 323 319 319 322 322
311 311 311 312 313 313 314 315 315 315 316 318 318 320 320 319 320 320 321 322 322 322 323 323 324 325 326 326 326 326 326 327 327 329 330 331 333 334 333 335 333 332 332 334 334 335 333 332 331 330 332 334 333 333 334 334 334 333 332 332 333 335 333 331 333 334 333 333 334 335 333 332 333 333 332 331 331 330 328 327 325 324 318 315 321
310 310 310 311 312 313 314 314 315 316 317 317 318 319 319 320 319 319 320 322 321 322 322 323 323 323 324 323 324 324 325 325 326 328 329 330 331 333 335 335 334 334 334 335 334 335 336 334 332 332 333 333 333 333 333 333 334 331 331 333 333 335 334 332 332 332 334 334 334 333 333 333 332 333 333 332 331 330 330 329 329 325 322 318 316
310 310 310 311 311 312 313 314 314 316 316 317 318 320 320 320 320 319 320 320 320 321 321 321 321 322 322 322 323 323 323 323 325 325 327 328 329 330 333 334 334 334 335 334 333 332 334 334 333 332 333 333 332 332 333 334 334 331 332 333 334 335 334 332 333 332 332 333 332 332 333 332 332 333 332 331 330 330 330 330 328 327 327 322 320
308 308 308 309 310 311 313 313 314 315 317 318 316 319 318 320 319 319 319 320 319 320 321 321 321 321 321 321 321 321 322 322 323 323 324 324 325 327 329 331 334 334 333 334 334 332 333 334 334 332 332 332 332 330 330 331 333 331 331 332 333 332 332 331 332 334 332 331 331 332 332 332 333 331 331 331 332 331 331 331 331 331 329 327 324
307 307 308 309 310 311 312 313 313 313 313 315 316 317 317 318 318 318 319 318 318 318 319 319 320 320 320 321 321 320 321 321 321 321 321 322 322 324 325 327 330 334 334 333 333 333 332 332 333 332 331 331 331 330 330 330 331 330 331 330 330 330 331 331 332 333 332 332 331 329 330 331 331 331 330 330 331 331 332 332 331 331 330 328 327
306 307 307 309 310 311 312 313 313 313 314 315 316 315 315 316 316 316 316 316 317 318 318 318 319 319 319 319 319 319 319 320 320 320 321 321 321 322 323 324 326 328 333 333 332 332 332 332 332 332 331 331 331 329 329 329 329 330 330 330 330 330 330 330 331 330 330 331 330 329 329 331 332 331 331 331 331 331 332 332 332 331 329 329 327
306 307 308 308 310 311 311 311 312 312 312 313 313 314 314 315 314 316 316 315 316 316 317 317 318 318 317 318 318 318 318 318 318 319 319 319 320 321 323 324 324 326 328 332 332 332 332 331 330 331 332 331 331 330 331 331 330 329 328 328 328 328 329 329 330 329 330 329 328 329 330 330 331 330 331 330 330 330 331 331 331 331 328 328 329
306 307 308 309 309 309 309 310 310 311 311 312 313 313 313 314 314 314 314 314 315 315 316 317 316 316 317 317 317 317 317 317 317 317 318 319 320 321 322 323 323 325 327 328 332 333 332 332 330 329 329 331 330 330 329 329 328 327 327 328 328 328 329 329 328 328 329 330 329 328 328 329 331 330 330 330 331 331 331 330 330 330 328 328 329
307 307 308 309 308 309 309 309 309 309 310 310 312 312 312 312 312 313 313 314 315 315 316 316 316 316 316 317 316 316 316 316 316 316 317 318 319 320 321 321 322 323 323 325 326 329 330 330 331 330 327 329 331 330 330 329 329 329 328 328 328 328 327 327 328 328 328 327 328 328 328 327 328 329 329 329 329 330 329 326 328 329 329 330 327
306 306 307 307 308 308 308 308 308 308 309 310 310 310 310 311 311 311 312 314 314 314 315 315 315 315 316 315 316 316 315 316 316 316 317 317 317 318 319 319 320 320 321 322 324 325 326 328 329 330 330 327 327 328 329 330 330 330 329 329 329 328 328 328 329 331 329 328 326 326 328 329 329 327 327 328 328 327 329 328 328 328 327 329 328
306 306 306 306 307 307 307 307 307 308 308 308 309 309 309 309 311 312 311 313 313 314 314 314 315 314 314 315 315 315 315 316 316 316 317 316 317 317 317 317 318 317 318 320 319 320 321 322 323 327 328 329 329 329 327 328 330 330 328 328 328 328 328 328 329 330 327 327 327 327 329 329 327 327 327 327 327 327 329 329 328 327 326 326 325
305 306 305 306 306 307 307 307 307 307 307 308 308 308 308 309 310 310 311 312 313 313 313 313 313 313 313 313 314 314 314 315 315 316 316 315 315 316 315 315 315 315 315 315 315 316 318 319 320 322 323 326 328 328 327 328 329 329 328 328 327 327 328 327 327 328 329 329 329 330 329 327 326 327 328 327 327 327 329 328 329 329 328 327 326
305 305 305 304 305 306 306 307 308 307 308 308 308 308 308 309 308 309 310 311 313 312 312 312 312 312 312 312 313 314 314 314 315 315 314 315 314 314 314 314 313 312 312 312 313 314 315 315 316 317 319 322 324 326 327 318 316 320 324 327 327 326 326 327 328 328 328 329 328 326 327 329 328 327 328 328 327 326 329 327 328 328 327 325 324
304 304 304 304 304 305 305 306 306 306 306 306 307 307 308 308 309 308 310 310 311 311 310 310 310 310 311 311 312 313 313 313 313 313 313 313 313 313 313 312 311 311 311 311 311 312 311 312 313 314 315 318 322 320 305 303 302 304 308 317 326 327 327 327 325 325 327 327 328 329 330 328 329 329 322 321 323 324 327 325 327 327 326 325 323
302 303 303 303 304 304 305 305 305 305 305 305 306 306 307 307 308 308 309 308 311 310 309 309 308 309 310 310 310 311 311 311 311 311 311 311 311 312 312 310 310 310 309 309 310 309 309 309 309 310 311 313 317 309 303 298 299 300 302 309 317 323 325 326 326 327 326 327 329 328 328 327 321 319 317 312 311 313 318 327 328 327 326 324 321
302 302 303 303 303 303 304 304 304 305 305 305 306 306 307 307 307 307 307 309 308 308 308 308 307 308 309 309 309 309 309 309 310 309 310 310 309 310 310 309 309 309 308 308 308 307 307 307 307 307 307 308 311 304 297 295 294 295 299 302 308 315 323 325 326 325 325 326 327 329 328 326 322 320 320 311 309 309 311 314 316 319 323 325 322
301 302 302 302 302 302 302 303 303 304 304 304 305 305 306 305 306 306 308 308 308 308 307 307 307 307 307 307 308 308 307 308 308 307 308 308 308 308 308 308 308 308 308 308 306 306 306 305 305 305 304 305 307 300 295 295 294 293 295 297 302 310 317 324 326 326 326 326 327 327 326 325 325 324 325 319 310 306 303 302 304 306 309 313 313
300 300 300 301 301 301 302 302 303 303 303 304 305 305 305 305 306 307 308 307 307 307 306 306 306 306 306 307 307 306 306 307 307 307 308 307 307 307 306 306 306 307 307 306 305 305 304 304 303 303 302 303 304 299 295 295 294 292 292 294 300 308 313 319 324 325 326 327 326 325 325 324 326 323 325 323 318 309 300 300 300 300 300 303 304
299 300 300 300 301 302 302 302 303 303 304 305 306 306 306 306 306 306 306 306 305 305 305 305 305 305 305 306 306 306 306 306 306 307 307 306 306 305 306 306 306 306 306 306 306 305 304 303 302 302 301 301 302 299 294 294 293 292 291 292 297 304 311 317 322 325 325 326 327 325 324 323 324 325 325 324 320 316 312 312 314 316 314 306 300
298 299 300 300 301 301 302 302 302 303 304 305 304 305 305 305 305 305 305 305 304 304 304 304 304 305 305 305 305 305 305 305 306 306 306 305 305 305 305 305 305 305 304 304 305 304 303 302 301 301 300 300 300 296 294 292 292 291 291 292 299 307 312 316 320 324 326 326 326 325 323 323 325 324 324 323 321 318 318 320 320 319 318 316 315
299 299 300 300 301 301 301 302 304 304 303 303 303 305 304 304 304 304 304 304 304 303 303 304 303 304 304 304 305 304 305 305 305 305 305 305 305 305 304 305 305 305 304 304 304 304 303 301 301 300 299 298 299 295 293 292 291 291 292 299 306 310 313 317 320 323 325 325 326 325 324 323 324 325 316 308 314 321 322 322 319 313 310 307 303
300 301 301 302 302 302 303 304 304 304 303 303 304 304 303 303 303 303 303 302 303 302 302 303 303 303 304 304 304 304 304 304 304 304 304 304 304 304 304 305 303 303 302 302 302 303 302 301 300 299 298 298 298 296 293 292 291 291 294 302 309 312 315 318 321 323 323 321 321 324 325 325 325 325 311 302 306 313 324 320 314 312 310 308 306
301 301 302 302 303 303 304 304 303 303 303 304 304 304 303 302 302 302 302 301 302 301 302 302 302 303 303 303 303 303 303 303 303 303 303 303 304 304 304 304 303 302 301 301 302 302 302 301 299 299 299 298 297 297 293 292 291 291 294 305 311 314 312 310 309 308 308 308 306 305 318 325 323 322 301 302 302 314 321 318 314 311 310 308 307
301 301 301 301 302 302 302 303 303 302 303 304 304 303 302 301 302 302 301 301 301 301 301 302 302 302 303 303 303 303 302 302 302 302 303 302 302 303 303 304 303 303 302 302 302 301 300 300 300 299 300 298 297 297 294 292 292 292 294 303 307 306 303 303 304 304 305 304 303 301 300 309 316 305 298 301 300 312 320 317 314 312 310 308 307
301 302 302 302 302 302 301 301 301 302 304 303 303 303 302 301 301 301 301 300 301 302 302 302 303 303 303 303 303 302 303 302 301 302 302 302 302 302 302 302 302 301 301 301 301 301 300 299 299 298 298 298 297 297 296 292 292 292 292 298 302 302 301 300 300 300 300 300 300 300 298 292 292 293 293 295 301 308 318 318 316 313 310 308 310
300 301 301 301 301 301 300 300 301 302 302 302 302 302 301 301 301 301 300 301 302 303 303 303 303 302 302 302 302 302 302 302 302 302 302 301 301 301 301 300 300 300 300 300 300 300 300 299 298 298 297 297 298 297 296 293 292 292 292 293 297 298 300 299 298 297 297 296 296 297 297 294 293 293 294 294 298 303 307 317 316 313 311 309 307
301 301 301 301 301 301 301 301 302 302 302 302 301 300 300 300 300 300 301 302 303 303 303 302 302 302 302 302 302 302 303 303 302 302 301 300 300 300 300 300 299 299 298 298 298 298 299 298 298 297 297 296 297 298 295 295 292 292 292 292 294 295 296 298 296 296 295 295 295 295 295 293 293 293 294 294 295 296 298 306 303 297 297 300 309
300 300 300 300 300 299 299 300 301 302 302 302 301 300 299 300 300 301 302 302 303 303 302 302 302 302 302 302 302 302 302 302 302 301 301 299 299 299 299 299 298 298 297 297 297 297 297 297 296 296 296 296 296 297 295 294 293 292 292 292 291 293 293 297 295 294 294 295 296 296 297 294 292 292 293 293 294 295 297 298 294 295 296 297 301
300 299 300 300 299 299 299 300 300 301 301 301 301 299 299 299 300 302 302 303 303 303 302 302 302 302 302 302 302 302 302 302 301 301 300 299 299 298 298 298 298 297 296 296 295 296 295 295 295 294 295 295 295 295 295 293 293 292 292 292 291 291 292 295 296 295 295 295 295 295 295 293 293 293 293 293 292 294 295 294 295 295 296 298 303
298 298 299 299 298 298 299 299 300 301 301 301 301 300 299 299 301 302 301 301 302 302 302 301 301 301 302 301 302 302 302 302 301 301 299 299 298 298 297 297 297 297 296 295 295 295 294 294 294 294 294 294 295 294 294 293 292 293 292 292 292 291 292 293 296 296 295 295 293 292 292 293 293 294 294 295 295 294 293 294 295 297 302 304 303
299 299 299 299 299 299 298 298 299 300 301 301 301 300 299 300 301 302 301 301 301 301 301 301 301 301 301 301 301 301 302 302 301 301 300 299 299 298 297 297 297 296 296 295 295 295 294 294 293 294 294 294 294 293 292 293 293 293 293 292 292 292 293 293 294 294 293 292 292 292 292 293 294 295 297 297 297 297 294 295 296 299 303 304 304
297 299 299 299 298 298 298 298 298 299 300 300 300 300 300 301 301 301 301 301 301 301 301 301 301 300 301 302 301 300 301 301 300 300 299 300 299 298 297 296 296 296 296 295 295 294 294 293 293 293 294 294 294 293 291 291 292 292 293 294 294 295 293 293 295 295 294 295 294 294 293 292 293 292 293 293 294 295 297 299 300 300 300 302 302
299 299 299 298 298 297 298 298 298 299 300 300 300 299 300 301 301 301 301 301 301 301 300 300 300 301 300 300 301 295 298 300 299 298 297 297 299 299 297 295 295 295 295 295 295 295 294 294 293 293 293 293 293 292 291 289 290 290 291 292 292 293 293 293 293 294 294 294 294 292 293 294 294 294 295 295 295 295 294 294 297 298 298 298 298
298 299 299 298 298 297 298 298 298 299 300 300 300 300 300 301 301 301 301 300 300 300 301 300 300 299 301 301 302 301 300 301 300 298 297 296 295 297 297 297 295 294 294 294 296 295 296 296 295 293 292 292 292 291 290 289 289 289 289 290 290 290 292 292 291 290 293 292 292 291 290 291 291 290 290 291 292 292 292 293 294 295 296 296 296
298 299 299 298 299 299 299 298 298 300 299 299 300 300 300 300 300 300 301 300 299 299 300 299 299 298 298 299 300 299 300 300 300 299 298 296 289 289 290 295 296 291 288 287 289 293 293 295 297 295 293 291 290 291 289 288 289 289 290 289 289 289 289 291 290 290 291 289 289 288 288 288 288 288 288 288 289 289 289 290 291 290 292 293 294
299 298 298 298 298 299 299 298 299 300 299 299 299 299 300 300 300 300 300 300 299 298 298 298 298 298 297 298 298 298 298 299 300 300 300 298 297 296 289 288 289 289 289 289 288 288 288 288 292 296 293 288 289 289 288 289 289 290 290 290 290 290 290 289 290 289 289 288 287 287 287 287 287 287 286 286 287 288 288 289 290 290 291 291 290
Wind_Speed
7 2 5 10 11 10 9 9 8 8 8 7 7 7 7 7 5 6 4 2 2 3 2 2 2 1 1 1 1 3 3 3 4 5 5 5 6 5 4 4 5 4 5 6 5 6 5 4 4 5 5 5 5 5 6 6 5 4 3 2 1 3 3 3 5 5 3 3 3 3 2 5 5 1 2 1 0 1 1 4 3 5 4 5 4
10 9 10 10 10 11 10 8 8 9 9 9 8 8 6 6 6 4 3 4 4 3 1 3 2 3 2 2 0 2 3 2 4 3 4 4 4 4 4 4 4 5 4 4 4 5 5 6 5 5 5 5 6 6 5 6 6 5 3 2 2 2 3 3 3 6 2 1 4 1 1 5 3 3 1 1 1 1 1 3 3 4 5 4 5
12 11 10 11 13 13 11 9 9 8 8 8 7 8 8 6 5 4 4 4 4 4 3 3 2 2 2 2 2 2 1 1 1 5 5 4 4 4 4 3 4 4 5 4 4 5 5 5 6 6 6 6 6 7 6 6 7 8 7 6 4 3 3 1 4 3 4 5 1 1 1 3 2 1 1 2 2 2 1 2 4 4 4 5 6
11 11 10 12 13 12 11 10 9 10 9 8 7 7 6 5 5 4 4 4 3 3 3 3 3 1 1 1 2 2 2 1 1 2 4 4 4 3 3 4 5 5 6 6 5 6 6 5 4 5 6 7 7 6 6 6 8 7 7 7 6 6 6 5 5 4 3 5 4 4 1 2 3 6 4 3 3 3 3 3 3 3 3 3 3
10 10 10 10 11 11 10 9 9 9 9 10 9 7 5 6 5 5 4 4 3 3 3 2 2 1 1 2 2 2 4 3 1 1 1 2 4 5 5 6 6 5 5 6 6 5 5 5 5 6 6 7 6 6 6 7 8 9 9 7 8 7 5 3 3 6 6 4 5 3 3 4 4 1 3 2 4 3 3 3 2 2 3 5 5
11 10 10 10 10 10 10 10 10 8 8 7 7 8 8 6 6 5 4 4 4 4 3 2 1 1 1 2 2 3 3 2 2 2 3 4 4 4 5 6 6 6 6 7 7 5 6 6 6 6 7 6 6 7 6 6 7 9 8 8 8 8 6 5 4 4 7 7 6 3 2 4 5 2 1 4 2 3 3 3 4 5 4 1 5
11 10 10 10 10 10 10 10 9 9 7 6 6 7 8 7 6 6 5 4 4 3 3 2 2 1 1 2 2 3 3 1 3 2 2 2 3 4 4 4 5 4 4 5 5 6 5 5 5 6 6 5 5 5 6 8 8 8 8 8 8 8 7 6 7 5 6 7 7 7 5 3 4 4 4 2 2 1 2 3 4 5 7 8 8
10 11 11 10 10 10 10 9 8 9 7 7 6 7 7 7 7 7 6 6 7 7 8 6 5 4 3 3 3 3 3 2 2 1 2 2 2 2 3 3 4 4 4 4 4 6 5 5 6 6 6 5 5 6 7 7 6 6 7 9 7 7 9 9 7 6 7 7 9 8 8 7 6 4 1 2 1 2 4 4 4 5 5 8 8
10 10 11 10 10 10 9 9 8 9 8 7 7 6 6 8 8 9 9 8 8 9 8 8 6 5 4 3 4 3 3 2 2 1 1 0 2 1 1 1 2 3 3 3 4 5 6 5 6 7 7 7 5 5 6 7 8 8 8 8 9 8 8 8 8 9 9 6 8 7 6 6 5 4 4 4 3 2 3 5 4 4 5 6 7
9 11 10 10 9 9 8 8 9 7 6 7 7 7 8 8 9 9 10 9 8 10 9 9 8 7 6 6 8 7 6 4 1 0 1 1 2 2 2 3 3 3 3 2 3 5 5 6 6 8 8 7 6 6 6 7 7 8 9 9 8 8 7 8 9 9 9 7 7 7 7 6 4 3 3 5 2 3 3 0 3 6 8 7 7
8 9 10 10 8 8 7 9 8 8 6 7 7 7 7 7 8 8 8 7 8 8 9 10 9 8 8 9 8 8 8 7 6 3 1 1 1 3 2 3 4 4 4 4 5 6 5 6 6 6 7 7 6 7 7 7 6 7 8 8 8 9 8 8 9 8 7 8 9 7 8 9 8 8 8 7 6 4 3 3 6 8 8 6 7
8 8 8 9 8 8 8 9 9 9 8 8 7 7 7 8 8 8 7 7 6 7 7 7 7 8 9 10 10 9 8 7 7 7 5 5 4 3 2 3 3 3 3 2 4 7 4 3 2 6 7 7 8 6 6 7 7 7 6 7 8 9 8 8 8 9 10 8 9 8 7 7 7 7 5 6 7 6 6 5 4 5 9 5 6
7 7 8 7 7 7 8 8 7 7 7 8 8 7 7 7 8 8 7 7 7 6 6 7 7 8 8 9 9 9 10 10 8 8 6 5 4 4 4 3 2 4 3 2 2 5 6 5 2 5 8 8 7 5 6 7 7 5 6 8 8 9 10 9 8 10 11 10 9 7 7 7 8 6 6 6 4 5 7 5 6 8 9 9 7
7 7 7 7 7 7 7 6 7 6 8 6 7 6 6 6 8 8 8 8 8 7 8 7 7 8 8 8 8 8 9 9 9 8 8 6 5 3 2 3 3 5 5 5 3 2 3 5 5 6 7 8 5 7 8 7 5 5 7 8 9 8 7 10 10 9 9 10 7 8 8 8 7 6 7 7 7 6 6 7 4 5 6 5 6
6 7 7 7 6 6 6 6 6 6 6 6 6 7 7 6 7 8 8 8 8 9 7 8 6 6 6 7 8 8 8 8 8 8 8 8 7 4 3 3 4 4 5 4 3 4 5 3 3 6 7 7 7 6 6 8 9 5 6 8 8 8 9 8 9 10 10 10 9 8 8 7 7 7 7 8 8 8 6 6 5 3 4 6 6
7 7 7 7 7 6 6 5 6 6 6 5 6 5 5 5 6 6 7 6 7 7 8 7 7 8 7 7 8 7 7 6 6 7 8 8 7 5 5 3 2 4 5 5 5 4 3 4 4 6 7 6 6 7 8 6 5 5 7 9 11 7 9 11 11 10 11 10 10 8 7 7 7 7 7 7 7 6 6 5 5 5 6 7 6
7 7 7 7 6 6 6 6 5 5 5 5 6 5 5 4 6 7 3 5 7 7 7 8 8 8 8 9 9 10 9 8 7 7 8 8 8 7 5 3 4 4 4 3 5 5 4 3 3 5 6 6 6 7 9 8 5 4 8 9 10 9 8 9 9 10 9 9 9 11 9 6 7 7 6 6 6 6 6 6 7 7 6 9 6
8 8 7 6 6 6 6 6 6 6 7 4 4 4 5 7 4 4 4 5 6 8 7 7 8 7 7 8 8 7 8 9 9 9 9 8 8 7 7 5 4 5 4 4 4 8 6 6 4 5 5 5 7 6 6 6 5 5 8 9 9 8 8 8 8 9 8 8 8 9 7 6 6 7 7 6 6 7 6 8 7 8 10 8 4
6 6 6 6 6 6 6 6 7 6 3 6 8 6 8 3 6 6 8 10 12 6 7 5 6 6 7 8 9 9 8 8 9 10 10 10 10 10 9 7 5 3 6 4 4 7 8 6 5 6 6 6 6 5 6 6 5 4 7 8 8 8 7 8 7 7 7 8 10 9 8 7 6 8 6 6 6 6 7 8 8 8 8 7 4
6 6 6 6 6 7 6 6 8 8 8 8 8 7 5 7 8 10 11 9 10 10 8 9 8 8 9 8 9 10 10 9 10 10 9 10 11 12 12 11 10 6 3 6 6 6 6 6 4 4 5 5 6 6 6 6 5 6 6 7 8 9 10 9 8 6 6 9 7 7 9 8 7 6 6 6 6 7 7 7 7 6 4 4 3
6 6 6 6 6 6 7 8 8 8 7 6 6 9 9 8 8 9 9 10 9 7 8 7 8 8 9 10 10 10 12 11 11 10 9 9 10 11 10 10 10 10 7 4 6 8 8 6 5 5 5 5 5 6 5 4 4 6 6 6 7 9 11 10 7 6 7 9 8 11 12 10 8 8 7 7 6 7 7 6 5 5 5 5 6
6 6 6 6 7 8 7 7 8 8 8 9 8 6 8 8 8 8 8 7 8 8 8 9 9 9 10 10 10 9 10 10 11 9 10 10 10 9 10 10 9 9 10 7 6 6 6 8 9 6 5 5 5 6 6 5 5 6 6 6 6 9 10 12 8 10 9 6 8 9 10 10 9 10 8 8 8 8 8 7 7 6 5 5 6
7 7 7 7 7 7 7 9 9 9 9 8 7 8 8 9 9 9 9 10 11 10 9 8 8 9 10 10 10 10 11 11 11 10 10 11 9 9 10 10 11 11 12 12 8 6 6 7 5 8 8 7 5 6 6 7 8 7 7 8 7 8 10 11 11 9 9 8 7 8 9 7 5 8 8 8 8 8 8 8 7 7 7 7 5
8 8 7 8 7 7 9 9 9 9 8 9 8 8 9 9 9 9 10 10 8 7 7 8 8 9 9 9 10 9 10 9 9 8 9 10 10 10 9 10 10 9 12 11 13 12 9 8 7 4 8 9 7 6 7 7 9 9 9 9 8 9 9 12 12 10 8 8 11 10 10 9 8 8 8 7 8 7 5 5 6 4 7 4 3
9 10 10 9 9 10 9 9 9 9 9 7 9 10 10 9 9 9 9 8 8 8 9 8 7 9 8 9 9 9 9 9 9 8 8 8 9 9 9 11 10 11 11 10 11 12 11 11 10 8 6 5 9 9 9 9 8 7 8 8 7 6 6 9 10 9 6 7 8 10 11 9 7 8 8 8 8 8 7 7 7 8 5 4 6
10 8 10 11 10 10 10 9 9 9 9 9 9 9 9 9 9 7 8 8 9 9 9 8 8 8 9 10 9 9 10 10 10 9 9 10 9 9 10 10 12 13 12 11 12 11 11 12 11 10 10 8 7 6 9 10 9 7 6 7 8 7 9 10 11 5 7 6 8 8 11 9 10 11 9 8 8 9 8 8 10 7 8 4 5
9 10 12 11 9 8 10 9 8 9 8 7 8 9 9 8 10 11 10 10 10 9 9 11 11 11 10 10 10 10 10 9 10 10 10 11 11 11 12 12 12 13 13 13 13 13 12 12 12 12 11 11 9 9 9 8 9 7 8 8 8 8 9 8 8 9 10 8 8 8 6 7 8 8 9 9 8 9 9 11 9 9 7 6 8
9 9 10 10 9 10 10 9 8 8 7 6 7 8 7 8 10 9 9 7 5 6 10 10 10 10 10 10 9 9 10 10 10 11 11 11 11 12 11 12 12 13 13 14 14 14 12 12 11 11 11 9 11 11 10 14 14 14 11 10 8 8 9 11 10 9 7 7 9 10 9 10 9 10 7 5 9 10 8 7 6 6 7 7 6
10 10 9 10 9 8 8 8 8 9 11 11 10 11 11 10 7 9 7 7 6 9 9 10 10 11 11 10 10 9 9 11 12 11 11 12 12 11 11 12 12 12 11 13 14 14 14 14 13 13 13 11 9 9 9 8 9 12 11 12 9 7 9 8 9 12 11 9 10 9 7 7 9 11 12 9 10 11 8 8 7 8 8 7 7
10 9 9 8 8 8 8 8 9 10 10 11 10 10 10 11 12 11 10 13 10 9 10 11 12 11 10 11 11 11 11 10 11 12 11 12 12 11 11 12 13 13 13 13 14 14 14 14 14 14 13 11 9 6 14 20 17 10 10 10 11 9 8 9 10 8 8 10 9 7 8 9 9 9 10 13 16 16 13 10 8 8 9 9 10
9 9 9 8 8 8 8 9 9 10 10 9 9 10 9 10 11 11 11 10 10 10 11 12 12 12 11 11 11 11 11 12 11 11 11 13 14 12 12 13 12 13 13 13 13 14 14 14 14 14 14 11 10 9 22 20 19 20 12 10 10 12 10 9 9 9 10 10 9 9 8 10 9 10 13 16 17 19 16 12 12 12 11 12 10
9 9 8 8 8 8 9 9 9 10 10 10 9 9 9 10 9 11 10 10 10 11 12 12 13 12 12 13 11 12 12 12 12 13 13 13 13 13 13 13 12 13 11 11 13 14 14 14 13 14 13 12 11 13 22 21 21 20 16 10 8 9 10 10 8 9 9 9 9 8 4 5 8 10 10 9 11 12 13 12 12 11 10 9 13
8 8 8 8 7 7 8 8 8 9 8 9 9 9 10 10 10 9 9 9 10 10 11 12 12 12 13 12 13 12 13 12 12 12 10 11 13 13 14 14 14 12 10 12 14 13 13 14 13 14 14 13 12 15 20 23 23 21 18 14 8 9 9 11 10 9 8 8 7 6 7 9 7 10 8 6 5 6 6 10 10 8 8 11 8
8 7 7 7 6 6 7 8 8 8 8 8 8 8 8 9 9 9 9 10 11 11 11 12 12 12 12 13 12 13 13 13 12 12 11 11 12 12 12 10 10 11 11 11 10 12 11 13 14 14 13 13 12 17 22 24 24 22 19 15 9 10 9 9 11 10 9 9 9 9 6 7 7 8 7 6 5 5 7 7 7 5 5 7 8
8 7 7 7 8 8 7 8 8 7 7 8 9 9 8 9 9 9 10 11 11 12 12 11 10 11 11 11 12 13 13 13 12 11 11 12 12 10 11 10 9 10 11 11 11 10 11 12 14 13 13 13 11 18 23 25 24 23 21 15 7 8 8 9 10 10 9 9 9 7 5 7 7 8 9 10 10 10 9 8 7 6 5 5 4
7 7 7 8 8 8 7 7 6 7 8 9 8 7 8 9 9 10 10 11 11 11 11 10 10 10 11 11 11 11 12 12 12 12 12 12 11 11 11 9 9 9 9 10 11 9 11 13 14 15 14 15 13 19 25 26 25 23 22 9 7 8 8 7 9 10 9 6 5 6 8 8 7 7 13 17 14 10 10 10 8 8 7 5 4
8 7 7 7 8 8 7 7 6 7 8 8 8 8 9 9 10 10 11 11 11 11 11 10 10 10 10 11 12 12 11 11 12 12 12 11 11 11 10 9 9 10 10 11 11 10 11 12 15 14 16 16 16 20 25 26 25 25 17 9 8 6 7 7 6 7 5 4 3 6 7 7 9 8 11 15 17 15 8 10 12 9 7 6 4
8 8 8 8 8 8 7 6 7 8 7 6 7 7 7 8 9 10 10 11 11 12 11 10 10 10 11 10 11 11 11 11 12 13 12 11 10 9 9 9 9 9 10 10 10 10 10 10 13 14 14 15 16 19 25 26 26 26 21 12 12 9 9 10 8 8 7 6 6 13 1 8 8 6 11 15 13 10 8 10 11 11 9 8 5
9 8 8 9 8 8 8 8 8 8 7 6 6 8 9 9 9 8 9 9 9 10 10 10 10 11 10 9 10 10 10 10 11 11 11 12 12 11 11 10 10 9 9 9 9 9 10 10 12 12 17 15 14 17 23 25 27 26 21 11 11 9 11 12 11 9 8 6 6 10 13 6 7 7 10 11 7 5 9 8 9 10 9 8 6
9 8 8 9 8 8 9 9 8 7 7 8 7 7 8 8 8 8 8 9 9 9 9 9 9 9 9 9 9 10 9 9 10 10 10 11 10 10 11 11 11 10 10 9 9 8 10 11 12 13 13 13 15 15 19 26 26 26 26 14 11 11 11 10 10 9 9 9 7 8 10 13 16 13 12 11 7 6 7 8 8 7 9 9 7
8 8 8 8 7 9 9 7 7 8 8 9 8 6 7 8 8 8 9 8 8 8 8 7 8 9 9 10 9 9 9 9 9 9 8 10 10 11 11 12 11 10 10 10 11 9 8 9 10 11 12 12 13 15 15 24 25 26 27 21 11 13 10 9 8 11 10 10 9 8 7 14 21 20 16 14 13 13 10 5 5 8 8 9 8
8 8 7 7 8 9 8 7 8 9 8 8 8 8 7 7 9 10 8 7 7 7 7 8 8 9 8 8 9 9 8 8 8 9 9 10 11 11 11 11 10 10 11 11 11 10 9 9 9 10 11 13 14 18 16 20 24 24 24 25 14 12 12 8 11 8 9 11 11 7 7 14 23 23 18 19 18 17 16 9 12 15 17 17 11
8 8 7 6 8 8 6 7 8 7 7 7 8 8 7 9 10 8 6 6 7 7 7 7 8 9 8 8 8 9 8 7 8 10 10 10 10 10 11 11 11 11 11 12 12 11 10 9 9 10 10 12 13 12 18 17 21 23 23 22 21 15 17 11 9 9 11 9 7 9 14 21 23 23 21 19 18 18 14 12 17 16 14 15 12
9 8 8 9 9 8 7 8 7 9 8 7 6 5 8 9 8 5 5 7 8 7 6 7 6 7 7 8 8 7 8 8 9 8 9 9 10 10 10 10 9 10 9 11 12 10 10 10 10 9 10 11 11 10 13 19 17 20 20 20 20 19 16 10 9 8 10 10 9 12 15 23 21 21 23 22 20 16 13 17 18 19 17 14 10
8 9 9 8 8 8 8 10 8 8 4 3 5 9 10 8 4 5 9 9 7 6 6 7 8 7 7 8 7 6 7 9 9 9 8 8 9 9 9 9 9 10 10 10 10 10 10 9 9 9 10 10 10 10 10 15 20 19 19 20 20 20 20 17 12 11 10 10 15 20 21 19 19 19 20 20 18 18 19 17 16 15 12 9 9
9 8 8 10 9 8 8 9 9 6 5 8 7 8 9 7 7 7 8 7 6 6 6 7 7 6 7 9 8 8 8 8 9 8 8 8 8 8 8 8 8 8 8 9 9 9 9 8 8 9 9 9 9 10 11 12 13 14 14 18 19 19 19 19 16 14 18 20 20 18 18 19 18 17 14 12 12 13 18 18 18 14 8 7 6
9 8 8 8 9 9 8 9 9 5 4 7 9 9 7 7 8 8 8 7 7 6 5 5 6 7 5 5 5 5 6 7 8 7 7 8 7 7 7 7 7 7 7 7 7 8 8 7 6 7 8 8 8 9 10 10 10 8 10 11 12 12 15 15 12 11 13 12 14 14 13 15 13 18 18 16 16 15 13 12 10 9 9 7 6
8 9 9 10 9 8 8 8 7 6 8 7 7 8 8 6 6 7 6 6 4 3 4 5 6 4 4 5 5 4 6 6 6 6 6 7 7 5 6 7 6 7 7 7 7 7 7 7 7 7 7 8 8 8 8 9 10 10 9 9 10 10 10 9 10 9 9 9 9 12 14 11 11 12 12 12 11 10 11 10 10 9 9 9 9
10 10 9 8 9 8 7 8 6 6 7 7 4 3 9 8 7 7 6 6 4 4 5 5 4 4 3 3 3 3 5 5 4 5 5 5 4 5 5 5 5 5 4 4 5 5 5 5 5 6 7 7 7 7 8 8 9 11 10 9 9 9 8 7 9 11 9 10 10 12 11 12 12 11 11 11 10 10 10 10 12 10 9 9 9
9 8 8 8 8 8 8 7 5 4 7 7 6 7 8 8 7 7 7 6 6 6 6 5 6 7 6 4 5 5 5 4 6 4 4 4 3 6 5 4 3 3 5 6 4 3 4 5 5 2 2 4 4 5 9 11 12 13 15 15 13 14 13 11 10 14 12 11 10 10 10 10 11 11 11 11 10 9 8 9 9 9 9 9 9
9 9 7 8 8 8 8 6 6 5 8 7 7 8 9 9 8 7 7 8 7 6 6 6 6 5 7 8 8 7 6 4 3 5 6 5 3 4 6 5 5 5 7 7 1 2 6 7 6 3 1 6 3 6 9 9 10 11 12 14 15 15 15 15 15 12 13 11 10 11 10 10 9 9 9 9 9 10 10 10 9 9 9 9 9
Wind_Direction
88 100 38 66 68 66 66 66 67 62 63 70 71 64 54 55 61 71 77 81 40 48 41 20 42 4 23 19 97 177 227 194 168 153 162 170 184 196 187 194 225 237 217 200 189 193 190 173 172 170 171 174 183 196 180 171 176 184 203 194 174 349 310 73 61 81 339 273 75 157 277 306 287 338 32 44 65 299 64 132 132 130 142 146 158
90 72 55 56 61 61 55 52 50 61 52 55 62 64 70 68 60 59 60 69 63 62 57 84 358 28 346 18 280 182 210 177 118 151 155 169 187 184 196 200 220 231 221 215 203 209 194 186 181 173 179 178 189 197 185 176 172 171 162 186 143 132 275 72 110 128 159 256 313 198 231 236 307 306 291 178 163 276 224 150 152 144 163 171 167
77 73 57 49 46 47 52 48 47 46 51 49 45 51 42 50 63 59 55 53 64 51 11 45 46 32 2 337 324 308 276 83 129 150 143 162 185 195 191 194 226 243 236 220 207 223 230 208 189 176 180 180 183 193 190 182 183 173 180 180 141 124 215 234 178 156 132 131 271 306 251 264 206 246 255 245 193 202 231 232 164 163 179 187 180
72 61 53 49 47 43 39 39 35 37 36 37 38 43 50 43 38 50 51 51 60 72 34 39 41 333 346 322 297 284 327 11 199 162 158 152 167 210 195 197 207 227 238 226 212 220 216 219 202 187 191 187 187 187 190 177 178 178 179 182 166 156 169 209 165 151 150 143 178 201 17 347 263 223 211 217 207 191 198 221 194 160 153 218 175
77 68 59 54 53 54 53 48 43 41 36 35 28 30 34 44 39 45 53 50 56 52 61 28 46 340 31 287 252 234 215 195 114 33 96 173 185 181 203 205 207 210 228 237 226 226 225 218 209 205 206 198 187 188 191 187 182 182 177 170 166 165 167 171 155 161 195 203 167 143 162 191 228 34 184 219 167 202 213 213 177 166 165 197 209
82 75 67 64 61 54 49 48 47 45 42 31 34 30 31 33 36 43 51 39 34 42 34 19 14 5 341 304 329 329 319 59 88 167 175 187 208 172 187 204 208 212 214 229 228 217 232 227 215 212 214 205 200 194 189 191 188 185 185 170 166 170 162 160 165 166 183 199 214 201 185 179 184 166 160 229 145 209 207 201 205 208 161 307 245
78 77 71 66 63 60 55 50 49 46 34 31 31 29 33 35 29 33 41 34 28 18 25 336 355 352 356 318 300 287 304 354 135 151 252 233 174 170 183 192 216 222 232 237 225 227 228 233 231 227 220 221 210 202 194 198 196 185 178 178 185 168 156 173 180 167 161 188 201 202 196 208 178 140 190 155 218 184 232 207 223 213 185 198 228
81 78 76 68 66 63 57 52 43 37 28 26 29 25 22 27 32 30 33 33 18 11 11 4 345 352 341 318 298 302 295 321 82 174 151 251 244 200 176 177 201 225 224 234 252 238 232 235 232 226 229 226 216 215 211 207 202 194 182 189 181 178 170 167 174 172 188 191 184 191 203 195 199 205 166 172 143 172 197 210 222 229 208 198 217
80 79 75 72 68 65 63 57 48 37 29 24 21 21 18 19 26 26 19 18 16 8 4 1 353 337 320 311 305 297 305 342 83 39 72 134 287 307 289 239 193 204 229 223 229 243 236 237 239 235 229 229 219 230 220 212 205 198 196 192 191 193 181 178 169 185 204 201 170 195 191 199 194 193 174 152 187 181 242 191 201 219 230 213 214
78 78 79 76 69 63 59 60 55 46 34 29 21 22 23 19 19 27 19 10 9 2 356 358 354 348 349 352 348 342 336 331 355 125 239 345 312 349 353 316 333 349 335 325 304 273 270 248 242 246 239 229 220 225 224 217 210 207 205 203 201 199 194 189 189 181 191 197 186 178 185 185 182 179 191 173 206 233 223 81 245 198 206 217 201
81 79 76 70 66 64 59 57 50 43 37 31 23 22 27 21 10 26 27 7 7 4 357 354 351 354 355 353 347 347 350 345 341 318 168 73 301 300 331 2 16 342 344 334 302 288 265 293 292 285 266 243 226 223 228 218 217 211 210 211 211 204 200 199 197 195 185 192 196 191 190 185 189 193 189 181 174 176 191 199 231 237 209 199 201
75 75 71 69 70 63 56 55 47 40 32 33 27 21 24 23 10 12 25 5 9 3 354 354 354 356 354 350 347 352 348 346 346 336 333 320 317 327 6 355 8 301 287 267 288 276 273 231 256 301 299 285 256 244 229 227 219 212 223 217 218 217 211 202 199 199 193 194 199 197 197 196 201 197 175 162 165 179 184 202 198 251 244 236 183
87 77 76 74 66 61 55 47 46 39 34 34 32 20 17 18 10 8 17 5 7 2 356 0 358 357 356 352 353 350 351 348 344 335 350 338 325 349 332 356 290 270 267 287 276 303 296 284 153 224 241 244 245 255 259 253 236 233 222 229 221 220 219 208 203 207 201 198 198 196 193 195 204 193 164 158 162 162 184 204 225 216 211 212 187
84 81 81 72 62 63 56 53 49 43 39 38 38 34 25 22 8 11 14 8 7 4 356 6 360 0 354 353 351 354 350 349 341 338 340 349 346 318 296 273 263 259 275 260 200 254 298 273 255 253 257 259 228 212 230 239 245 234 230 227 226 227 226 221 214 212 212 210 199 197 198 196 203 186 180 166 175 173 187 198 193 242 235 209 168
90 84 74 71 70 66 64 56 46 45 43 35 42 33 31 22 14 16 15 8 12 360 360 355 2 358 355 358 358 356 352 342 336 332 338 339 337 331 248 268 282 282 274 268 242 228 211 214 262 263 254 257 269 266 229 215 218 207 245 238 236 225 227 226 222 215 213 210 208 205 197 196 192 188 183 185 175 193 182 165 156 228 251 219 172
96 88 84 74 69 63 64 65 55 47 44 38 46 53 37 22 4 13 7 32 14 9 358 353 1 355 359 5 1 352 348 334 331 330 328 330 330 330 303 259 233 264 277 275 264 242 206 226 230 257 270 268 270 273 270 259 231 221 232 234 233 222 218 226 227 218 217 212 210 208 202 201 192 192 191 182 181 179 176 162 152 166 215 231 185
87 75 67 66 62 60 57 58 60 54 53 44 40 42 44 7 24 344 39 40 32 16 4 358 4 4 1 5 1 350 345 339 333 331 328 328 325 321 315 303 280 260 268 280 291 272 243 193 205 243 250 249 243 241 252 253 221 219 241 237 236 226 222 226 230 229 217 216 214 213 211 198 197 196 195 185 174 174 180 180 178 184 201 238 177
84 75 67 62 63 60 61 58 53 50 42 24 36 88 39 17 337 10 336 57 47 30 8 11 6 356 2 358 354 355 343 341 341 342 340 328 320 319 317 314 316 306 285 257 280 301 279 260 224 237 243 249 248 260 273 269 246 224 241 245 241 232 223 227 224 224 226 226 225 221 205 203 202 201 193 186 180 184 184 200 194 195 207 221 214
82 75 70 67 64 69 62 55 58 58 35 70 50 30 45 356 10 9 28 7 48 22 8 7 14 1 5 357 352 353 353 345 348 347 342 332 327 325 324 323 318 327 305 293 257 250 262 255 230 236 246 245 250 249 254 271 278 253 246 249 257 256 238 231 234 220 211 225 220 210 202 208 200 201 195 192 192 185 197 206 209 207 191 199 194
86 82 81 82 79 69 63 58 54 46 34 30 44 43 17 25 29 4 35 11 22 19 7 7 10 14 356 360 2 352 354 354 352 348 338 335 335 333 332 334 331 312 286 290 291 283 280 271 265 246 240 247 255 255 251 247 248 253 249 248 247 251 251 240 234 230 222 221 214 227 218 209 203 199 201 203 204 206 211 213 211 201 187 187 170
100 95 94 83 76 77 65 53 55 52 47 45 34 46 34 22 23 29 13 24 28 6 14 8 14 6 2 2 4 359 358 355 353 345 338 342 337 329 325 323 321 322 319 304 303 302 302 294 271 262 265 267 250 257 261 257 249 251 247 247 261 258 250 249 237 244 248 236 217 221 219 208 198 200 202 200 204 213 216 217 215 193 198 189 189
104 101 99 88 78 69 68 69 62 55 41 48 45 44 38 35 29 29 24 26 26 10 16 14 14 6 5 3 5 4 0 356 346 345 343 339 333 324 323 326 325 320 318 313 292 300 312 304 297 289 288 274 267 265 267 263 248 242 240 241 242 250 260 254 229 227 227 242 242 238 234 209 194 202 201 203 205 212 218 209 212 207 207 208 188
110 101 92 92 79 66 60 57 60 54 48 46 45 44 44 34 33 36 25 23 20 15 15 19 15 7 6 2 2 10 358 355 347 346 341 338 332 334 333 337 336 334 331 329 321 300 290 287 287 295 291 283 264 253 249 251 254 248 243 239 230 236 244 248 240 227 229 223 232 237 236 228 199 201 204 205 205 209 214 217 209 206 213 212 200
109 96 93 76 76 73 59 53 48 50 46 39 34 42 40 36 28 27 31 25 26 8 3 25 21 12 9 359 7 8 354 343 344 345 340 338 340 336 337 334 333 332 334 335 334 332 323 316 295 278 285 285 275 263 258 254 254 251 249 248 244 234 234 252 251 242 219 225 229 232 230 220 230 218 205 207 211 211 213 218 223 223 214 164 127
99 89 79 79 74 60 54 49 44 41 47 38 39 35 34 31 25 25 21 17 18 1 3 25 22 15 10 3 8 6 351 345 353 340 339 346 344 338 337 338 338 338 339 336 337 340 346 342 335 318 288 267 276 286 281 263 255 259 266 271 277 290 286 277 270 244 236 229 233 237 240 221 212 219 212 205 206 209 212 214 217 208 227 177 170
98 128 132 105 84 74 61 49 44 40 35 39 39 38 33 29 30 22 20 16 15 11 10 354 22 16 12 7 10 6 350 349 350 342 350 355 349 352 351 348 347 345 344 348 347 348 343 340 337 337 333 322 297 263 261 272 272 269 270 278 275 260 251 249 253 265 252 234 233 231 230 209 213 216 211 207 207 213 210 207 206 198 204 179 104
101 68 58 66 57 77 78 63 62 49 41 38 44 40 33 30 30 24 12 19 19 357 16 6 15 18 7 10 7 357 348 353 353 351 358 354 357 0 359 358 353 350 351 350 350 348 346 344 345 350 353 346 319 293 287 281 282 278 267 260 254 258 257 264 270 250 241 244 239 233 216 228 229 219 211 206 206 212 208 215 206 197 183 144 143
94 83 75 71 71 50 43 35 41 48 35 42 54 43 39 45 38 34 18 7 13 28 13 15 14 14 8 8 358 358 351 359 354 357 357 353 358 2 3 1 357 358 354 351 349 350 348 348 348 344 344 339 338 329 349 2 353 342 326 287 263 272 263 249 230 240 238 235 239 242 231 217 215 226 220 196 204 221 209 210 218 173 156 155 139
96 85 76 70 62 58 53 44 32 32 29 24 30 28 16 27 14 35 357 18 25 11 36 16 19 14 9 4 358 1 0 6 1 356 357 357 1 1 3 3 3 0 357 355 350 353 352 350 351 348 346 344 332 21 26 6 359 353 347 327 305 281 272 255 240 240 241 238 235 233 223 214 209 191 200 208 215 214 198 186 183 168 164 143 129
89 84 80 69 60 55 51 47 36 33 31 28 23 26 18 21 5 19 10 24 18 25 26 25 18 11 6 7 5 4 2 7 4 360 360 360 358 1 4 3 5 2 0 358 355 356 356 354 352 352 346 343 340 39 5 7 358 354 333 322 311 286 274 270 256 243 244 248 238 225 235 221 199 199 203 208 228 226 209 201 178 165 161 155 155
94 91 84 74 62 50 45 40 35 32 29 28 27 21 26 20 16 14 6 11 17 23 25 24 17 9 9 7 8 6 2 5 6 4 2 1 3 3 2 2 3 4 2 1 358 358 359 354 354 351 347 344 339 8 4 359 349 342 340 323 318 310 285 258 256 253 243 233 233 232 207 220 221 203 211 208 213 220 198 194 172 172 170 168 162
82 73 66 63 59 49 40 35 35 32 27 25 23 20 23 21 19 10 10 8 20 26 24 18 13 8 7 10 10 8 6 7 8 6 5 4 4 5 2 1 1 1 3 3 2 1 360 357 355 351 349 346 337 13 357 349 340 334 330 320 300 292 290 278 260 251 247 241 230 219 195 193 203 198 198 196 196 184 160 148 140 145 166 150 162
83 74 68 60 52 48 46 40 38 34 31 27 23 21 23 25 14 20 18 13 19 29 28 19 12 10 9 11 10 8 6 6 7 6 7 9 6 6 4 3 1 357 358 3 3 1 2 358 356 353 349 347 338 360 349 341 335 329 324 321 297 287 285 284 265 246 244 248 235 211 198 198 206 187 186 176 150 132 116 118 122 123 124 142 151
82 78 72 71 65 57 52 45 41 42 35 26 28 23 28 25 20 21 19 23 24 29 26 21 16 12 12 10 10 9 7 5 4 3 0 9 10 9 6 4 357 358 358 357 2 6 5 359 357 353 349 345 345 351 343 338 333 328 322 319 283 282 276 275 275 255 238 239 230 221 198 197 196 181 169 167 142 145 139 134 141 148 124 101 103
87 86 84 77 68 61 57 51 49 46 41 36 36 34 34 31 25 25 27 27 31 29 25 20 15 13 12 9 8 10 8 3 2 2 3 4 5 10 10 5 360 3 1 353 359 7 8 2 356 354 350 347 349 348 344 339 334 328 324 315 267 272 274 277 280 273 248 237 233 215 188 205 202 172 167 168 163 167 161 153 141 123 104 82 88
99 90 81 75 69 65 62 62 55 53 51 47 43 39 37 36 31 29 28 28 31 32 28 20 16 14 11 10 9 9 7 4 1 4 4 6 3 4 9 6 3 2 7 1 359 5 7 4 358 355 353 349 347 352 348 342 338 333 328 309 286 288 280 281 282 280 263 250 242 201 193 201 213 189 173 183 175 172 167 153 121 104 93 77 43
104 97 88 84 80 74 68 66 60 52 53 45 45 43 44 40 37 34 31 30 28 31 29 22 19 17 15 17 14 9 6 359 1 6 7 6 3 2 7 2 7 9 8 7 359 3 8 5 1 357 359 354 352 353 351 348 345 343 339 322 305 291 287 274 281 284 297 320 279 228 196 202 197 201 181 176 165 177 165 133 123 121 115 102 88
116 102 92 85 82 80 77 69 65 66 58 56 52 49 52 50 45 40 32 31 32 31 27 24 21 21 16 18 17 11 7 1 2 6 4 3 359 4 9 1 4 13 14 9 3 5 13 9 2 2 357 358 356 356 356 354 355 354 354 348 352 8 15 19 30 38 23 0 21 26 287 197 169 171 173 162 167 147 131 131 126 127 121 110 102
93 93 94 87 80 73 75 71 63 61 59 61 59 52 49 52 50 46 36 32 31 29 27 23 27 24 19 18 19 16 12 7 4 2 6 6 2 1 6 2 1 8 15 11 9 13 16 12 8 4 2 4 1 357 357 359 2 3 2 350 7 21 21 14 6 13 16 358 360 37 29 63 99 118 131 125 115 115 130 125 127 121 117 115 125
105 92 84 81 81 83 71 65 63 65 63 53 47 48 49 53 56 51 42 36 30 31 29 22 29 27 20 22 24 21 17 14 11 4 9 11 6 5 6 7 4 9 6 7 10 18 23 20 15 13 11 5 4 2 0 3 5 9 10 6 10 21 20 12 15 5 3 346 1 27 33 55 73 63 66 80 96 134 118 132 126 122 124 118 138
109 104 99 94 87 73 69 66 60 59 55 49 43 39 50 58 58 50 48 41 31 29 30 30 32 30 24 25 27 21 18 22 17 10 14 20 12 11 11 11 9 8 7 4 8 8 26 28 20 17 14 9 8 6 359 7 9 11 14 16 11 17 11 17 11 19 12 341 354 23 30 60 72 67 64 69 81 101 95 99 98 113 114 116 109
108 100 93 83 80 79 77 69 59 55 52 54 42 34 43 45 51 54 50 42 34 33 30 33 31 33 28 28 33 25 15 21 17 13 22 27 21 17 17 13 11 10 8 11 8 9 10 25 21 13 13 10 2 7 9 7 10 13 16 17 16 12 10 22 28 17 11 9 4 345 339 47 67 69 63 66 70 78 84 83 98 102 102 101 103
120 110 105 106 90 83 80 69 62 55 52 51 55 38 28 47 49 50 50 45 44 34 31 34 36 35 36 31 34 29 19 20 25 21 21 29 25 20 18 18 16 13 13 13 12 8 10 14 18 12 11 9 8 0 7 7 8 13 15 16 17 17 14 26 28 24 20 360 343 20 45 44 56 63 61 60 64 68 71 87 86 80 80 80 81
89 95 93 82 88 79 66 66 64 54 48 45 38 48 51 55 47 45 55 53 45 31 24 37 44 38 30 37 33 32 23 18 28 29 26 27 29 21 21 22 20 19 18 18 17 13 11 12 11 11 10 10 5 360 1 4 3 9 14 15 16 16 17 26 34 37 30 3 14 31 40 44 46 55 62 60 55 55 65 68 76 82 82 82 88
116 102 97 86 74 75 79 75 67 66 62 89 66 43 47 41 39 47 58 50 37 31 29 36 33 32 28 32 32 34 32 28 15 23 29 31 31 22 21 21 24 25 24 26 22 18 16 11 11 11 11 6 9 5 4 5 4 4 9 13 16 15 16 17 34 34 38 20 24 33 39 44 45 49 52 57 53 48 49 52 58 68 74 81 85
109 105 107 104 97 85 75 76 68 50 42 44 48 47 52 33 21 44 60 54 38 38 46 41 42 34 28 27 28 29 40 39 21 14 15 27 41 29 20 18 21 25 27 27 23 23 21 14 11 11 7 2 3 8 4 2 4 1 7 7 12 16 14 16 24 32 30 29 25 27 31 38 41 45 49 49 54 49 48 49 49 49 59 61 76
121 126 105 90 89 85 72 66 73 62 59 59 54 63 57 46 35 30 43 48 42 30 36 43 43 36 31 28 42 32 41 52 32 21 18 13 29 44 23 20 19 17 25 24 25 21 18 12 6 1 359 357 2 4 3 357 1 356 6 3 9 14 17 18 19 22 28 30 27 28 33 34 41 48 53 53 52 46 46 43 46 46 48 50 53
82 83 93 97 94 85 77 71 62 43 51 48 51 62 70 62 61 54 46 46 60 45 45 45 41 40 46 34 41 31 63 75 57 39 27 17 10 30 45 20 13 13 9 15 20 16 12 14 5 357 353 359 2 358 2 357 354 360 1 9 7 13 18 22 19 18 27 28 34 33 32 30 32 37 40 45 42 44 49 47 45 44 45 42 42
78 69 74 87 87 91 92 85 74 64 68 61 53 42 60 57 45 52 57 48 17 31 50 53 48 25 45 62 49 57 77 102 100 85 59 31 15 355 20 51 19 3 3 2 4 3 357 0 16 355 352 359 360 357 353 341 359 10 17 12 13 5 7 16 18 21 32 34 32 37 38 36 33 33 37 39 37 38 42 44 46 41 42 42 42
117 109 102 104 110 104 93 94 96 80 75 65 30 45 62 53 49 44 53 59 39 26 21 29 29 34 12 34 34 39 49 91 134 135 114 98 66 61 26 16 32 12 341 338 352 6 327 323 351 47 41 11 349 321 314 353 10 15 17 21 22 21 22 26 22 43 43 43 34 40 36 37 37 38 38 36 33 35 37 42 41 39 39 41 41
110 109 104 86 87 104 107 94 84 82 81 67 49 33 42 47 46 44 43 56 47 33 31 20 24 32 25 26 33 22 23 25 51 124 157 150 135 76 59 42 19 337 325 311 9 327 336 335 333 8 159 203 263 314 344 360 5 9 19 23 29 28 23 25 25 43 41 37 34 41 36 36 36 40 42 38 34 33 31 31 34 34 35 35 36